Hourly Data Report for September 19, 2013

All times are specified in Local Standard Time (LST). Add 1 hour to adjust for Daylight Saving Time where and when it is observed.

PETAWAWA AWOS 2
ONTARIO

45°57'00.000" N
77°19'00.000" W
130.10 m
6106396
71625
YWA

Related Data

No related data is available for this station

Download Data

Hourly Data (September 2013)
Hourly Data Report for September 19, 2013
Temp Definition
°C
Dew Point Temp Definition
°C
Rel Hum Definition
%
Wind Dir Definition
10's deg

Wind Spd Definition
km/h
Visibility Definition
km
Stn Press Definition
kPa
Hmdx Definition


Wind Chill Definition


Weather Definition


TIME
00:00 7.1 6.5 96   0 15.0 100.32      
01:00 6.1 5.6 97   0 15.0 100.33      
02:00 6.3 6.1 99   0 15.0 100.31      
03:00
04:00 7.2 7.0 99 24 4 15.0 100.30      
05:00 7.8 7.7 99   0 15.0 100.30      
06:00 9.6 8.7 94   0 15.0 100.33      
07:00 10.0 9.6 97   0 15.0 100.36      
08:00 12.6 10.9 89 9 4 15.0 100.34      
09:00 13.9 11.3 84 10 7 15.0 100.36      
10:00 14.8 11.5 81 10 7 15.0 100.29      
11:00 17.6 12.8 73 8 9 15.0 100.26      
12:00 20.3 14.5 69 9 11 15.0 100.21      
13:00 23.0 15.7 63 8 9 15.0 100.12 27    
14:00 23.5 14.6 57 10 11 15.0 100.05 27    
15:00 24.1 13.0 50 16 4 15.0 100.00 27    
16:00 24.7 12.9 48 18 6 15.0 99.96 27    
17:00 24.6 13.4 50 16 7 15.0 99.95 28    
18:00 21.8 14.8 64 15 4 15.0 99.96 26    
19:00 18.4 15.3 82   0 15.0 99.97      
20:00 18.0 15.6 86   0 15.0 100.02      
21:00 18.9 15.9 83 10 4 15.0 99.98      
22:00 18.4 15.4 83 11 6 15.0 99.94      
23:00 17.8 15.3 85 10 4 15.0 99.95      

Notes on Data Quality.

Legend

  • E = Estimated
  • M = Missing
  • NA = Not Available
  • ‡ = Partner data that is not subject to review by the National Climate Archives
Date modified: